Branson, MO

12:53 AM CDT on July 25, 2017 (GMT -0500)
Branson

Weather History for KBBG - February, 2013

Change the Weather History Date:

Saturday, February 23, 2013

  Actual Average (KHRO) Record (KHRO)
Temperature  
Mean Temperature 31 °F -  
Max Temperature 41 °F 53 °F 84 °F (1930)
Min Temperature 21 °F 32 °F 5 °F (1910)
Degree Days  
Heating Degree Days 34    
Moisture  
Dew Point 20 °F    
Average Humidity 71    
Maximum Humidity 93    
Minimum Humidity 42    
Precipitation  
Precipitation 0.00 in - - ()
Sea Level Pressure  
Sea Level Pressure 30.02 in    
Wind  
Wind Speed 2 mph (NNW)    
Max Wind Speed 9 mph    
Max Gust Speed -    
Visibility 9 miles    
Events      
Averages and records for this station are not official NWS values.
T = Trace of Precipitation, MM = Missing Value Source: NWS Daily Summary

Daily Weather History Graph

Daily Weather History Graph

Search for Another Location

Airport or City:

Trip Planner

Search our weather history database for the weather conditions in past years. The results will help you decide how hot, cold, wet, or windy it might be!

Date:

Astronomy

Feb. 23, 2013 Rise Set
Actual Time 6:50 AM CST 6:01 PM CST
Civil Twilight 6:24 AM CST 6:27 PM CST
Nautical Twilight 5:54 AM CST 6:57 PM CST
Astronomical Twilight 5:24 AM CST 7:27 PM CST
Moon 4:14 PM CST (2/23) 5:11 AM CST (2/23)
Length of Visible Light 12h 03m
Length of Day
11h 11m
Waxing Gibbous, 95% of the Moon is Illuminated
Feb 23
Waxing Gibbous
Feb 25
Full
Mar 4
Last Quarter
Mar 11
New
Mar 19
First Quarter

Hourly Weather History & Observations

Time (CST) Temp. Windchill Dew Point Humidity Pressure Visibility Wind Dir Wind Speed Gust Speed Precip Events Conditions
12:15 AM 24.8 °F - 19.4 °F 80% 30.08 in 10.0 mi Calm Calm - N/A   Clear
12:35 AM 24.8 °F - 21.2 °F 86% 30.08 in 8.0 mi Calm Calm - N/A   Clear
12:55 AM 24.8 °F - 21.2 °F 86% 30.09 in 8.0 mi Calm Calm - N/A   Clear
1:15 AM 24.8 °F - 21.2 °F 86% 30.08 in 8.0 mi Calm Calm - N/A   Clear
1:35 AM 24.8 °F - 21.2 °F 86% 30.07 in 8.0 mi Calm Calm - N/A   Clear
1:55 AM 24.8 °F - 21.2 °F 86% 30.07 in 8.0 mi Calm Calm - N/A   Clear
2:15 AM 23.0 °F - 19.4 °F 86% 30.06 in 7.0 mi Calm Calm - N/A   Clear
2:35 AM 23.0 °F 18.4 °F 19.4 °F 86% 30.06 in 8.0 mi WNW 3.5 mph - N/A   Clear
2:55 AM 23.0 °F - 19.4 °F 86% 30.04 in 7.0 mi Calm Calm - N/A   Clear
3:15 AM 23.0 °F - 19.4 °F 86% 30.04 in 8.0 mi Calm Calm - N/A   Clear
3:35 AM 23.0 °F - 21.2 °F 93% 30.03 in 7.0 mi Calm Calm - N/A   Clear
3:55 AM 23.0 °F 18.4 °F 19.4 °F 86% 30.03 in 5.0 mi WNW 3.5 mph - N/A   Clear
4:15 AM 21.2 °F 16.4 °F 19.4 °F 93% 30.03 in 5.0 mi WNW 3.5 mph - N/A   Clear
4:35 AM 23.0 °F 18.4 °F 19.4 °F 86% 30.03 in 7.0 mi NW 3.5 mph - N/A   Clear
4:55 AM 21.2 °F 16.4 °F 19.4 °F 93% 30.03 in 6.0 mi NNW 3.5 mph - N/A   Clear
5:15 AM 23.0 °F 17.0 °F 19.4 °F 86% 30.03 in 7.0 mi NNW 4.6 mph - N/A   Clear
6:50 AM 21.2 °F - 17.6 °F 86% 30.02 in 7.0 mi Calm Calm - N/A   Clear
7:45 AM 23.0 °F 18.4 °F 19.4 °F 86% 30.03 in 7.0 mi NNW 3.5 mph - N/A   Clear
8:45 AM 24.8 °F - 15.8 °F 69% 30.04 in 10.0 mi Calm Calm - N/A   Scattered Clouds
9:45 AM 28.4 °F 24.6 °F 17.6 °F 64% 30.04 in 10.0 mi North 3.5 mph - N/A   Mostly Cloudy
10:45 AM 30.2 °F - 15.8 °F 55% 30.05 in 10.0 mi Calm Calm - N/A   Mostly Cloudy
11:53 AM 32.0 °F 27.5 °F 17.6 °F 55% 30.03 in 10.0 mi NNW 4.6 mph - N/A   Mostly Cloudy
12:51 PM 37.4 °F 30.8 °F 19.4 °F 48% 30.02 in 10.0 mi WNW 9.2 mph - N/A   Partly Cloudy
1:45 PM 37.4 °F 31.4 °F 19.4 °F 48% 30.00 in 10.0 mi WNW 8.1 mph - N/A   Mostly Cloudy
2:45 PM 39.2 °F 37.0 °F 19.4 °F 45% 29.98 in 10.0 mi West 3.5 mph - N/A   Mostly Cloudy
3:45 PM 41.0 °F 37.1 °F 19.4 °F 42% 29.97 in 10.0 mi NW 5.8 mph - N/A   Partly Cloudy
4:51 PM 41.0 °F 37.1 °F 21.2 °F 45% 29.95 in 10.0 mi NNW 5.8 mph - N/A   Clear
5:48 PM 39.2 °F 37.0 °F 21.2 °F 49% 29.96 in 10.0 mi NW 3.5 mph - N/A   Clear
6:51 PM 35.6 °F - 23.0 °F 60% 29.98 in 10.0 mi Calm Calm - N/A   Clear
7:52 PM 32.0 °F 27.5 °F 23.0 °F 69% 29.98 in 10.0 mi North 4.6 mph - N/A   Clear
7:55 PM 33.8 °F 29.6 °F 21.2 °F 60% 29.98 in 10.0 mi NNE 4.6 mph - N/A   Scattered Clouds
8:15 PM 33.8 °F 29.6 °F 21.2 °F 60% 29.98 in 10.0 mi NNE 4.6 mph - N/A   Scattered Clouds
8:35 PM 33.8 °F - 21.2 °F 60% 29.99 in 10.0 mi Calm Calm - N/A   Scattered Clouds
8:50 PM 32.0 °F - 21.2 °F 64% 29.99 in 10.0 mi Calm Calm - N/A   Clear
8:55 PM 32.0 °F - 23.0 °F 69% 30.00 in 10.0 mi Calm Calm - N/A   Scattered Clouds
9:15 PM 32.0 °F 27.5 °F 21.2 °F 64% 29.98 in 10.0 mi East 4.6 mph - N/A   Mostly Cloudy
9:35 PM 32.0 °F - 21.2 °F 64% 29.99 in 10.0 mi Calm Calm - N/A   Mostly Cloudy
9:55 PM 32.0 °F 27.5 °F 21.2 °F 64% 29.99 in 10.0 mi ESE 4.6 mph - N/A   Mostly Cloudy
10:15 PM 32.0 °F 28.7 °F 21.2 °F 64% 29.98 in 10.0 mi ESE 3.5 mph - N/A   Mostly Cloudy
10:35 PM 32.0 °F 28.7 °F 21.2 °F 64% 29.99 in 10.0 mi SSE 3.5 mph - N/A   Mostly Cloudy
10:55 PM 32.0 °F 28.7 °F 23.0 °F 69% 29.98 in 10.0 mi SE 3.5 mph - N/A   Overcast
11:15 PM 32.0 °F 27.5 °F 23.0 °F 69% 29.99 in 10.0 mi SE 4.6 mph - N/A   Overcast
11:35 PM 32.0 °F 28.7 °F 23.0 °F 69% 29.98 in 10.0 mi SE 3.5 mph - N/A   Overcast
11:55 PM 32.0 °F 28.7 °F 23.0 °F 69% 29.99 in 10.0 mi SE 3.5 mph - N/A   Overcast